Time,TemperatureF,DewpointF,PressureIn,WindDirection,WindDirectionDegrees,WindSpeedMPH,WindSpeedGustMPH,Humidity,HourlyPrecipIn,Conditions,Clouds,dailyrainin,SolarRadiationWatts/m^2,SoftwareType,DateUTC
2013-04-22 00:00:00,40.6,33.3,30.69,East,94,0.0,0.0,75,0.00,,,0.00,0,Wunderground v.1.15,2013-04-22 04:00:00,
2013-04-22 00:01:00,40.6,33.3,30.69,East,94,0.0,0.0,75,0.00,,,0.00,0,Wunderground v.1.15,2013-04-22 04:01:00,
2013-04-22 00:02:00,40.6,33.6,30.69,East,94,0.0,0.0,76,0.00,,,0.00,0,Wunderground v.1.15,2013-04-22 04:02:00,
2013-04-22 00:03:00,40.5,33.2,30.69,East,94,0.0,0.0,75,0.00,,,0.00,0,Wunderground v.1.15,2013-04-22 04:03:00,
2013-04-22 00:04:00,40.4,33.1,30.69,East,94,0.0,0.0,75,0.00,,,0.00,0,Wunderground v.1.15,2013-04-22 04:04:00,
2013-04-22 00:08:00,40.3,33.3,30.69,East,94,0.0,0.0,76,0.00,,,0.00,0,Wunderground v.1.15,2013-04-22 04:08:00,
2013-04-22 00:13:00,40.0,33.0,30.70,East,94,0.0,0.0,76,0.00,,,0.00,0,Wunderground v.1.15,2013-04-22 04:13:00,
2013-04-22 00:19:00,39.7,33.1,30.70,East,94,0.0,0.0,77,0.00,,,0.00,0,Wunderground v.1.15,2013-04-22 04:19:00,
2013-04-22 00:25:00,39.6,33.0,30.70,East,94,0.0,0.0,77,0.00,,,0.00,0,Wunderground v.1.15,2013-04-22 04:25:00,
2013-04-22 00:31:00,39.4,33.4,30.70,East,94,0.0,2.0,79,0.00,,,0.00,0,Wunderground v.1.15,2013-04-22 04:31:00,
2013-04-22 00:37:00,39.4,33.4,30.70,East,94,0.0,2.0,79,0.00,,,0.00,0,Wunderground v.1.15,2013-04-22 04:37:00,
2013-04-22 00:43:00,39.3,33.6,30.70,East,94,0.0,2.0,80,0.00,,,0.00,0,Wunderground v.1.15,2013-04-22 04:43:00,
2013-04-22 00:49:00,39.2,33.5,30.70,East,94,0.0,2.0,80,0.00,,,0.00,0,Wunderground v.1.15,2013-04-22 04:49:00,
2013-04-22 00:55:00,39.1,33.8,30.70,East,94,0.0,2.0,81,0.00,,,0.00,0,Wunderground v.1.15,2013-04-22 04:55:00,
2013-04-22 01:00:00,39.0,33.4,30.69,East,94,0.0,2.0,80,0.00,,,0.00,0,Wunderground v.1.15,2013-04-22 05:00:00,
2013-04-22 01:06:00,38.9,33.3,30.70,East,94,0.0,2.0,80,0.00,,,0.00,0,Wunderground v.1.15,2013-04-22 05:06:00,
2013-04-22 01:12:00,38.7,33.4,30.69,East,94,0.0,2.0,81,0.00,,,0.00,0,Wunderground v.1.15,2013-04-22 05:12:00,
2013-04-22 01:18:00,38.5,33.5,30.70,East,94,0.0,2.0,82,0.00,,,0.00,0,Wunderground v.1.15,2013-04-22 05:18:00,
2013-04-22 01:24:00,38.3,33.3,30.70,East,94,0.0,2.0,82,0.00,,,0.00,0,Wunderground v.1.15,2013-04-22 05:24:00,
2013-04-22 01:30:00,38.1,33.4,30.70,East,94,0.0,2.0,83,0.00,,,0.00,0,Wunderground v.1.15,2013-04-22 05:30:00,
2013-04-22 01:36:00,37.9,33.5,30.70,East,94,0.0,2.0,84,0.00,,,0.00,0,Wunderground v.1.15,2013-04-22 05:36:00,
2013-04-22 01:42:00,37.7,33.3,30.70,East,94,0.0,2.0,84,0.00,,,0.00,0,Wunderground v.1.15,2013-04-22 05:42:00,
2013-04-22 01:47:00,37.5,33.4,30.70,East,94,0.0,2.0,85,0.00,,,0.00,0,Wunderground v.1.15,2013-04-22 05:47:00,
2013-04-22 01:53:00,37.3,33.2,30.70,East,94,0.0,2.0,85,0.00,,,0.00,0,Wunderground v.1.15,2013-04-22 05:53:00,
2013-04-22 01:59:00,37.1,33.3,30.70,East,94,0.0,2.0,86,0.00,,,0.00,0,Wunderground v.1.15,2013-04-22 05:59:00,
2013-04-22 02:05:00,37.0,33.2,30.70,East,94,0.0,0.0,86,0.00,,,0.00,0,Wunderground v.1.15,2013-04-22 06:05:00,
2013-04-22 02:11:00,36.8,33.3,30.69,East,94,0.0,0.0,87,0.00,,,0.00,0,Wunderground v.1.15,2013-04-22 06:11:00,
2013-04-22 02:17:00,36.7,33.2,30.69,East,94,0.0,0.0,87,0.00,,,0.00,0,Wunderground v.1.15,2013-04-22 06:17:00,
2013-04-22 02:23:00,36.5,33.0,30.69,East,94,0.0,0.0,87,0.00,,,0.00,0,Wunderground v.1.15,2013-04-22 06:23:00,
2013-04-22 02:28:00,36.4,33.2,30.69,East,94,0.0,0.0,88,0.00,,,0.00,0,Wunderground v.1.15,2013-04-22 06:28:00,
2013-04-22 02:34:00,36.2,33.0,30.69,East,94,0.0,0.0,88,0.00,,,0.00,0,Wunderground v.1.15,2013-04-22 06:34:00,
2013-04-22 02:40:00,36.1,32.9,30.69,East,94,0.0,0.0,88,0.00,,,0.00,0,Wunderground v.1.15,2013-04-22 06:40:00,
2013-04-22 02:46:00,35.9,33.0,30.69,East,94,0.0,0.0,89,0.00,,,0.00,0,Wunderground v.1.15,2013-04-22 06:46:00,
2013-04-22 02:52:00,35.6,32.4,30.68,East,94,0.0,0.0,88,0.00,,,0.00,0,Wunderground v.1.15,2013-04-22 06:52:00,
2013-04-22 02:58:00,35.3,32.4,30.69,East,94,0.0,0.0,89,0.00,,,0.00,0,Wunderground v.1.15,2013-04-22 06:58:00,
2013-04-22 03:04:00,35.1,32.5,30.69,East,94,0.0,0.0,90,0.00,,,0.00,0,Wunderground v.1.15,2013-04-22 07:04:00,
2013-04-22 03:10:00,34.9,32.3,30.69,East,94,0.0,0.0,90,0.00,,,0.00,0,Wunderground v.1.15,2013-04-22 07:10:00,
2013-04-22 03:15:00,34.8,32.2,30.69,East,94,0.0,0.0,90,0.00,,,0.00,0,Wunderground v.1.15,2013-04-22 07:15:00,
2013-04-22 03:21:00,34.8,32.4,30.69,East,94,0.0,0.0,91,0.00,,,0.00,0,Wunderground v.1.15,2013-04-22 07:21:00,
2013-04-22 03:27:00,34.6,32.2,30.69,East,94,0.0,0.0,91,0.00,,,0.00,0,Wunderground v.1.15,2013-04-22 07:27:00,
2013-04-22 03:32:00,34.4,32.0,30.69,East,94,0.0,0.0,91,0.00,,,0.00,0,Wunderground v.1.15,2013-04-22 07:32:00,
2013-04-22 03:38:00,34.3,31.9,30.69,East,94,0.0,0.0,91,0.00,,,0.00,0,Wunderground v.1.15,2013-04-22 07:38:00,
2013-04-22 03:44:00,34.2,32.1,30.69,East,94,0.0,0.0,92,0.00,,,0.00,0,Wunderground v.1.15,2013-04-22 07:44:00,
2013-04-22 03:50:00,34.1,31.7,30.69,East,94,0.0,0.0,91,0.00,,,0.00,0,Wunderground v.1.15,2013-04-22 07:50:00,
2013-04-22 03:56:00,33.9,31.8,30.69,East,94,0.0,0.0,92,0.00,,,0.00,0,Wunderground v.1.15,2013-04-22 07:56:00,
2013-04-22 04:01:00,33.8,31.7,30.70,East,94,0.0,0.0,92,0.00,,,0.00,0,Wunderground v.1.15,2013-04-22 08:01:00,
2013-04-22 04:07:00,33.7,31.6,30.70,East,94,0.0,0.0,92,0.00,,,0.00,0,Wunderground v.1.15,2013-04-22 08:07:00,
2013-04-22 04:13:00,33.5,31.4,30.70,East,94,0.0,0.0,92,0.00,,,0.00,0,Wunderground v.1.15,2013-04-22 08:13:00,
2013-04-22 04:18:00,33.5,31.4,30.70,East,94,0.0,0.0,92,0.00,,,0.00,0,Wunderground v.1.15,2013-04-22 08:18:00,
2013-04-22 04:24:00,33.4,31.3,30.70,East,94,0.0,0.0,92,0.00,,,0.00,0,Wunderground v.1.15,2013-04-22 08:24:00,
2013-04-22 04:30:00,33.3,31.2,30.70,East,94,0.0,0.0,92,0.00,,,0.00,0,Wunderground v.1.15,2013-04-22 08:30:00,
2013-04-22 04:36:00,33.2,31.4,30.70,East,94,0.0,0.0,93,0.00,,,0.00,0,Wunderground v.1.15,2013-04-22 08:36:00,
2013-04-22 04:42:00,33.0,31.2,30.71,East,94,0.0,0.0,93,0.00,,,0.00,0,Wunderground v.1.15,2013-04-22 08:42:00,
2013-04-22 04:48:00,32.9,31.1,30.71,East,94,0.0,0.0,93,0.00,,,0.00,0,Wunderground v.1.15,2013-04-22 08:48:00,
2013-04-22 04:54:00,32.8,31.0,30.70,East,94,0.0,0.0,93,0.00,,,0.00,0,Wunderground v.1.15,2013-04-22 08:54:00,
2013-04-22 05:00:00,32.7,30.9,30.70,East,94,0.0,0.0,93,0.00,,,0.00,0,Wunderground v.1.15,2013-04-22 09:00:00,
2013-04-22 05:05:00,32.5,30.7,30.70,East,94,0.0,0.0,93,0.00,,,0.00,0,Wunderground v.1.15,2013-04-22 09:05:00,
2013-04-22 05:11:00,32.4,30.6,30.71,East,94,0.0,0.0,93,0.00,,,0.00,0,Wunderground v.1.15,2013-04-22 09:11:00,
2013-04-22 05:17:00,32.1,30.3,30.71,East,94,0.0,0.0,93,0.00,,,0.00,0,Wunderground v.1.15,2013-04-22 09:17:00,
2013-04-22 05:23:00,32.1,30.3,30.71,East,94,0.0,0.0,93,0.00,,,0.00,0,Wunderground v.1.15,2013-04-22 09:23:00,
2013-04-22 05:29:00,32.1,30.3,30.71,East,94,0.0,0.0,93,0.00,,,0.00,0,Wunderground v.1.15,2013-04-22 09:29:00,
2013-04-22 05:35:00,32.0,30.5,30.71,East,94,0.0,0.0,94,0.00,,,0.00,0,Wunderground v.1.15,2013-04-22 09:35:00,
2013-04-22 05:41:00,32.0,30.5,30.71,East,94,0.0,0.0,94,0.00,,,0.00,0,Wunderground v.1.15,2013-04-22 09:41:00,
2013-04-22 05:47:00,31.9,30.4,30.71,East,94,0.0,0.0,94,0.00,,,0.00,0,Wunderground v.1.15,2013-04-22 09:47:00,
2013-04-22 05:53:00,31.7,29.9,30.71,East,94,0.0,0.0,93,0.00,,,0.00,0,Wunderground v.1.15,2013-04-22 09:53:00,
2013-04-22 05:58:00,31.7,30.2,30.71,East,94,0.0,0.0,94,0.00,,,0.00,0,Wunderground v.1.15,2013-04-22 09:58:00,
2013-04-22 06:04:00,31.7,30.2,30.71,East,94,0.0,0.0,94,0.00,,,0.00,0,Wunderground v.1.15,2013-04-22 10:04:00,
2013-04-22 06:10:00,31.8,30.3,30.71,East,94,0.0,0.0,94,0.00,,,0.00,0,Wunderground v.1.15,2013-04-22 10:10:00,
2013-04-22 06:16:00,31.7,30.2,30.71,East,94,0.0,0.0,94,0.00,,,0.00,7,Wunderground v.1.15,2013-04-22 10:16:00,
2013-04-22 06:22:00,31.6,30.1,30.72,East,94,0.0,0.0,94,0.00,,,0.00,14,Wunderground v.1.15,2013-04-22 10:22:00,
2013-04-22 06:28:00,31.5,30.0,30.72,East,94,0.0,0.0,94,0.00,,,0.00,21,Wunderground v.1.15,2013-04-22 10:28:00,
2013-04-22 06:34:00,31.6,30.1,30.71,East,94,0.0,0.0,94,0.00,,,0.00,26,Wunderground v.1.15,2013-04-22 10:34:00,
2013-04-22 06:39:00,31.7,30.2,30.71,East,94,0.0,0.0,94,0.00,,,0.00,30,Wunderground v.1.15,2013-04-22 10:39:00,
2013-04-22 06:45:00,31.7,30.2,30.71,East,94,0.0,0.0,94,0.00,,,0.00,32,Wunderground v.1.15,2013-04-22 10:45:00,
2013-04-22 06:51:00,32.0,30.5,30.71,East,94,0.0,0.0,94,0.00,,,0.00,33,Wunderground v.1.15,2013-04-22 10:51:00,
2013-04-22 06:57:00,32.2,30.7,30.71,East,94,0.0,0.0,94,0.00,,,0.00,35,Wunderground v.1.15,2013-04-22 10:57:00,
2013-04-22 07:03:00,32.5,31.2,30.71,East,94,0.0,0.0,95,0.00,,,0.00,37,Wunderground v.1.15,2013-04-22 11:03:00,
2013-04-22 07:09:00,32.8,31.5,30.71,East,94,0.0,1.0,95,0.00,,,0.00,40,Wunderground v.1.15,2013-04-22 11:09:00,
2013-04-22 07:15:00,33.2,31.9,30.71,East,94,0.0,2.0,95,0.00,,,0.00,65,Wunderground v.1.15,2013-04-22 11:15:00,
2013-04-22 07:20:00,33.6,32.3,30.72,East,94,0.0,0.0,95,0.00,,,0.00,120,Wunderground v.1.15,2013-04-22 11:20:00,
2013-04-22 07:26:00,34.1,32.8,30.72,East,94,0.0,0.0,95,0.00,,,0.00,130,Wunderground v.1.15,2013-04-22 11:26:00,
2013-04-22 07:32:00,34.6,33.1,30.72,East,94,0.0,0.0,94,0.00,,,0.00,185,Wunderground v.1.15,2013-04-22 11:32:00,
2013-04-22 07:38:00,35.2,33.6,30.72,East,94,0.0,0.0,94,0.00,,,0.00,206,Wunderground v.1.15,2013-04-22 11:38:00,
2013-04-22 07:44:00,36.1,34.5,30.71,East,94,0.0,0.0,94,0.00,,,0.00,223,Wunderground v.1.15,2013-04-22 11:44:00,
2013-04-22 07:50:00,37.3,35.7,30.71,NE,44,0.0,2.0,94,0.00,,,0.00,125,Wunderground v.1.15,2013-04-22 11:50:00,
2013-04-22 07:56:00,39.4,36.7,30.71,ENE,59,1.0,8.0,90,0.00,,,0.00,171,Wunderground v.1.15,2013-04-22 11:56:00,
2013-04-22 08:01:00,41.5,36.4,30.71,ENE,68,3.0,4.0,82,0.00,,,0.00,162,Wunderground v.1.15,2013-04-22 12:01:00,
2013-04-22 08:07:00,43.0,35.6,30.71,ENE,61,5.0,8.0,75,0.00,,,0.00,288,Wunderground v.1.15,2013-04-22 12:07:00,
2013-04-22 08:13:00,43.9,35.8,30.71,East,79,5.0,9.0,73,0.00,,,0.00,332,Wunderground v.1.15,2013-04-22 12:13:00,
2013-04-22 08:19:00,44.5,35.7,30.71,NE,49,4.0,9.0,71,0.00,,,0.00,281,Wunderground v.1.15,2013-04-22 12:19:00,
2013-04-22 08:25:00,44.9,35.0,30.71,ENE,67,4.0,7.0,68,0.00,,,0.00,281,Wunderground v.1.15,2013-04-22 12:25:00,
2013-04-22 08:31:00,45.4,35.1,30.71,ENE,61,5.0,5.0,67,0.00,,,0.00,265,Wunderground v.1.15,2013-04-22 12:31:00,
2013-04-22 08:37:00,45.6,34.5,30.72,East,84,5.0,6.0,65,0.00,,,0.00,334,Wunderground v.1.15,2013-04-22 12:37:00,
2013-04-22 08:43:00,46.1,35.0,30.72,ENE,59,5.0,5.0,65,0.00,,,0.00,406,Wunderground v.1.15,2013-04-22 12:43:00,
2013-04-22 08:48:00,46.1,34.2,30.72,ENE,73,6.0,10.0,63,0.00,,,0.00,413,Wunderground v.1.15,2013-04-22 12:48:00,
2013-04-22 08:54:00,46.3,34.4,30.73,ENE,66,6.0,8.0,63,0.00,,,0.00,489,Wunderground v.1.15,2013-04-22 12:54:00,
2013-04-22 09:00:00,46.5,35.0,30.73,NE,44,6.0,6.0,64,0.00,,,0.00,420,Wunderground v.1.15,2013-04-22 13:00:00,
2013-04-22 09:06:00,46.7,34.4,30.73,ENE,57,6.0,7.0,62,0.00,,,0.00,464,Wunderground v.1.15,2013-04-22 13:06:00,
2013-04-22 09:12:00,47.2,33.2,30.73,East,90,7.0,10.0,58,0.00,,,0.00,506,Wunderground v.1.15,2013-04-22 13:12:00,
2013-04-22 09:18:00,47.7,33.2,30.72,ESE,104,8.0,11.0,57,0.00,,,0.00,504,Wunderground v.1.15,2013-04-22 13:18:00,
2013-04-22 09:24:00,48.1,34.0,30.72,ENE,73,7.0,14.0,58,0.00,,,0.00,570,Wunderground v.1.15,2013-04-22 13:24:00,
2013-04-22 09:30:00,48.5,33.9,30.72,East,94,6.0,6.0,57,0.00,,,0.00,594,Wunderground v.1.15,2013-04-22 13:30:00,
2013-04-22 09:35:00,48.7,33.2,30.71,ENE,63,7.0,8.0,55,0.00,,,0.00,617,Wunderground v.1.15,2013-04-22 13:35:00,
2013-04-22 09:41:00,48.7,34.1,30.72,ESE,105,8.0,10.0,57,0.00,,,0.00,624,Wunderground v.1.15,2013-04-22 13:41:00,
2013-04-22 09:47:00,48.6,33.6,30.72,East,82,9.0,11.0,56,0.00,,,0.00,564,Wunderground v.1.15,2013-04-22 13:47:00,
2013-04-22 09:53:00,48.7,33.7,30.71,ENE,69,8.0,10.0,56,0.00,,,0.00,570,Wunderground v.1.15,2013-04-22 13:53:00,
2013-04-22 09:59:00,49.0,34.9,30.71,East,89,7.0,14.0,58,0.00,,,0.00,691,Wunderground v.1.15,2013-04-22 13:59:00,
2013-04-22 10:05:00,49.2,34.6,30.71,East,90,8.0,16.0,57,0.00,,,0.00,744,Wunderground v.1.15,2013-04-22 14:05:00,
2013-04-22 10:11:00,49.7,34.6,30.71,ENE,57,8.0,8.0,56,0.00,,,0.00,749,Wunderground v.1.15,2013-04-22 14:11:00,
2013-04-22 10:17:00,50.0,33.5,30.71,East,100,7.0,10.0,53,0.00,,,0.00,738,Wunderground v.1.15,2013-04-22 14:17:00,
2013-04-22 10:22:00,49.7,35.1,30.71,East,94,9.0,11.0,57,0.00,,,0.00,751,Wunderground v.1.15,2013-04-22 14:22:00,
2013-04-22 10:28:00,49.7,35.1,30.71,ENE,74,8.0,11.0,57,0.00,,,0.00,800,Wunderground v.1.15,2013-04-22 14:28:00,
2013-04-22 10:34:00,50.4,35.3,30.71,ENE,64,7.0,8.0,56,0.00,,,0.00,789,Wunderground v.1.15,2013-04-22 14:34:00,
2013-04-22 10:40:00,50.9,34.8,30.71,East,88,7.0,9.0,54,0.00,,,0.00,814,Wunderground v.1.15,2013-04-22 14:40:00,
2013-04-22 10:46:00,51.0,34.5,30.71,East,84,7.0,9.0,53,0.00,,,0.00,819,Wunderground v.1.15,2013-04-22 14:46:00,
2013-04-22 10:52:00,51.2,34.6,30.71,ESE,113,7.0,15.0,53,0.00,,,0.00,823,Wunderground v.1.15,2013-04-22 14:52:00,
2013-04-22 10:58:00,50.9,34.8,30.70,ENE,61,8.0,16.0,54,0.00,,,0.00,854,Wunderground v.1.15,2013-04-22 14:58:00,
2013-04-22 11:04:00,51.0,34.9,30.70,East,97,8.0,13.0,54,0.00,,,0.00,833,Wunderground v.1.15,2013-04-22 15:04:00,
2013-04-22 11:09:00,51.6,36.4,30.69,ESE,110,7.0,14.0,56,0.00,,,0.00,861,Wunderground v.1.15,2013-04-22 15:09:00,
2013-04-22 11:15:00,51.7,35.1,30.70,ENE,78,7.0,13.0,53,0.00,,,0.00,842,Wunderground v.1.15,2013-04-22 15:15:00,
2013-04-22 11:21:00,51.7,35.6,30.69,East,95,7.0,10.0,54,0.00,,,0.00,874,Wunderground v.1.15,2013-04-22 15:21:00,
2013-04-22 11:27:00,52.0,34.9,30.70,ESE,123,7.0,13.0,52,0.00,,,0.00,867,Wunderground v.1.15,2013-04-22 15:27:00,
2013-04-22 11:33:00,51.8,35.7,30.69,ENE,68,8.0,13.0,54,0.00,,,0.00,909,Wunderground v.1.15,2013-04-22 15:33:00,
2013-04-22 11:39:00,52.1,36.4,30.69,ESE,108,8.0,13.0,55,0.00,,,0.00,926,Wunderground v.1.15,2013-04-22 15:39:00,
2013-04-22 11:45:00,52.1,35.0,30.70,ENE,78,8.0,10.0,52,0.00,,,0.00,912,Wunderground v.1.15,2013-04-22 15:45:00,
2013-04-22 11:50:00,52.1,35.9,30.70,ESE,115,9.0,9.0,54,0.00,,,0.00,925,Wunderground v.1.15,2013-04-22 15:50:00,
2013-04-22 11:56:00,52.3,35.2,30.70,SE,146,9.0,10.0,52,0.00,,,0.00,898,Wunderground v.1.15,2013-04-22 15:56:00,
2013-04-22 12:02:00,52.3,37.1,30.70,SE,140,8.0,9.0,56,0.00,,,0.00,907,Wunderground v.1.15,2013-04-22 16:02:00,
2013-04-22 12:08:00,52.5,34.9,30.69,ENE,74,8.0,9.0,51,0.00,,,0.00,909,Wunderground v.1.15,2013-04-22 16:08:00,
2013-04-22 12:14:00,52.7,36.5,30.68,ENE,78,8.0,9.0,54,0.00,,,0.00,907,Wunderground v.1.15,2013-04-22 16:14:00,
2013-04-22 12:20:00,52.4,35.3,30.68,East,81,7.0,7.0,52,0.00,,,0.00,911,Wunderground v.1.15,2013-04-22 16:20:00,
2013-04-22 12:26:00,51.5,34.4,30.68,East,94,9.0,14.0,52,0.00,,,0.00,919,Wunderground v.1.15,2013-04-22 16:26:00,
2013-04-22 12:31:00,51.4,34.8,30.68,ENE,77,9.0,10.0,53,0.00,,,0.00,916,Wunderground v.1.15,2013-04-22 16:31:00,
2013-04-22 12:37:00,51.9,34.8,30.68,East,80,8.0,14.0,52,0.00,,,0.00,921,Wunderground v.1.15,2013-04-22 16:37:00,
2013-04-22 12:43:00,51.7,35.6,30.67,ESE,114,9.0,16.0,54,0.00,,,0.00,921,Wunderground v.1.15,2013-04-22 16:43:00,
2013-04-22 12:49:00,52.6,36.9,30.68,ESE,121,8.0,16.0,55,0.00,,,0.00,930,Wunderground v.1.15,2013-04-22 16:49:00,
2013-04-22 12:55:00,53.1,36.4,30.67,ENE,76,7.0,8.0,53,0.00,,,0.00,925,Wunderground v.1.15,2013-04-22 16:55:00,
2013-04-22 13:01:00,52.7,36.0,30.67,ESE,109,8.0,9.0,53,0.00,,,0.00,928,Wunderground v.1.15,2013-04-22 17:01:00,
2013-04-22 13:07:00,52.4,36.2,30.67,East,81,8.0,10.0,54,0.00,,,0.00,925,Wunderground v.1.15,2013-04-22 17:07:00,
2013-04-22 13:13:00,52.7,37.0,30.67,ESE,111,7.0,8.0,55,0.00,,,0.00,932,Wunderground v.1.15,2013-04-22 17:13:00,
2013-04-22 13:19:00,52.5,36.8,30.67,ENE,71,8.0,13.0,55,0.00,,,0.00,928,Wunderground v.1.15,2013-04-22 17:19:00,
2013-04-22 13:24:00,52.9,38.1,30.67,NE,46,7.0,8.0,57,0.00,,,0.00,928,Wunderground v.1.15,2013-04-22 17:24:00,
2013-04-22 13:30:00,53.1,37.3,30.67,ESE,107,7.0,8.0,55,0.00,,,0.00,967,Wunderground v.1.15,2013-04-22 17:30:00,
2013-04-22 13:36:00,53.1,37.3,30.66,ENE,68,7.0,10.0,55,0.00,,,0.00,951,Wunderground v.1.15,2013-04-22 17:36:00,
2013-04-22 13:42:00,52.8,38.9,30.66,ENE,78,8.0,8.0,59,0.00,,,0.00,967,Wunderground v.1.15,2013-04-22 17:42:00,
2013-04-22 13:48:00,53.0,39.5,30.65,NE,44,7.0,9.0,60,0.00,,,0.00,912,Wunderground v.1.15,2013-04-22 17:48:00,
2013-04-22 13:54:00,53.3,38.9,30.65,ENE,62,7.0,14.0,58,0.00,,,0.00,902,Wunderground v.1.15,2013-04-22 17:54:00,
2013-04-22 14:00:00,53.3,38.0,30.65,East,88,7.0,7.0,56,0.00,,,0.00,916,Wunderground v.1.15,2013-04-22 18:00:00,
2013-04-22 14:05:00,53.2,37.9,30.65,ESE,119,7.0,12.0,56,0.00,,,0.00,939,Wunderground v.1.15,2013-04-22 18:05:00,
2013-04-22 14:11:00,53.9,39.5,30.64,East,86,7.0,8.0,58,0.00,,,0.00,900,Wunderground v.1.15,2013-04-22 18:11:00,
2013-04-22 14:17:00,53.7,38.8,30.64,ENE,76,7.0,12.0,57,0.00,,,0.00,898,Wunderground v.1.15,2013-04-22 18:17:00,
2013-04-22 14:23:00,53.6,38.7,30.64,SE,127,8.0,10.0,57,0.00,,,0.00,882,Wunderground v.1.15,2013-04-22 18:23:00,
2013-04-22 14:29:00,53.7,39.3,30.63,East,79,7.0,15.0,58,0.00,,,0.00,937,Wunderground v.1.15,2013-04-22 18:29:00,
2013-04-22 14:35:00,53.9,39.9,30.63,East,88,6.0,8.0,59,0.00,,,0.00,925,Wunderground v.1.15,2013-04-22 18:35:00,
2013-04-22 14:41:00,54.1,39.2,30.63,ENE,69,7.0,9.0,57,0.00,,,0.00,838,Wunderground v.1.15,2013-04-22 18:41:00,
2013-04-22 14:47:00,54.4,39.0,30.64,East,81,7.0,9.0,56,0.00,,,0.00,881,Wunderground v.1.15,2013-04-22 18:47:00,
2013-04-22 14:52:00,53.8,38.9,30.63,ESE,109,7.0,10.0,57,0.00,,,0.00,863,Wunderground v.1.15,2013-04-22 18:52:00,
2013-04-22 14:58:00,53.3,38.9,30.63,ESE,111,8.0,12.0,58,0.00,,,0.00,816,Wunderground v.1.15,2013-04-22 18:58:00,
2013-04-22 15:04:00,53.2,39.2,30.62,East,91,9.0,14.0,59,0.00,,,0.00,800,Wunderground v.1.15,2013-04-22 19:04:00,
2013-04-22 15:10:00,53.4,39.9,30.62,East,79,8.0,8.0,60,0.00,,,0.00,793,Wunderground v.1.15,2013-04-22 19:10:00,
2013-04-22 15:16:00,53.3,39.3,30.61,ENE,57,8.0,8.0,59,0.00,,,0.00,789,Wunderground v.1.15,2013-04-22 19:16:00,
2013-04-22 15:22:00,53.2,38.8,30.62,East,92,8.0,12.0,58,0.00,,,0.00,770,Wunderground v.1.15,2013-04-22 19:22:00,
2013-04-22 15:28:00,52.9,38.5,30.62,ESE,109,8.0,12.0,58,0.00,,,0.00,758,Wunderground v.1.15,2013-04-22 19:28:00,
2013-04-22 15:33:00,52.9,39.4,30.61,ESE,118,8.0,9.0,60,0.00,,,0.00,766,Wunderground v.1.15,2013-04-22 19:33:00,
2013-04-22 15:39:00,53.2,39.2,30.61,ENE,61,8.0,12.0,59,0.00,,,0.00,722,Wunderground v.1.15,2013-04-22 19:39:00,
2013-04-22 15:45:00,52.7,38.3,30.61,East,92,9.0,13.0,58,0.00,,,0.00,740,Wunderground v.1.15,2013-04-22 19:45:00,
2013-04-22 15:51:00,52.7,38.8,30.61,ESE,108,8.0,8.0,59,0.00,,,0.00,719,Wunderground v.1.15,2013-04-22 19:51:00,
2013-04-22 15:57:00,52.9,39.8,30.61,ESE,113,8.0,9.0,61,0.00,,,0.00,714,Wunderground v.1.15,2013-04-22 19:57:00,
2013-04-22 16:03:00,52.8,39.3,30.61,ESE,119,8.0,10.0,60,0.00,,,0.00,693,Wunderground v.1.15,2013-04-22 20:03:00,
2013-04-22 16:09:00,53.2,39.7,30.61,East,100,6.0,10.0,60,0.00,,,0.00,668,Wunderground v.1.15,2013-04-22 20:09:00,
2013-04-22 16:14:00,53.3,39.3,30.61,East,96,7.0,10.0,59,0.00,,,0.00,629,Wunderground v.1.15,2013-04-22 20:14:00,
2013-04-22 16:20:00,52.9,38.5,30.61,NE,52,8.0,8.0,58,0.00,,,0.00,608,Wunderground v.1.15,2013-04-22 20:20:00,
2013-04-22 16:26:00,52.1,38.2,30.61,East,101,9.0,12.0,59,0.00,,,0.00,591,Wunderground v.1.15,2013-04-22 20:26:00,
2013-04-22 16:32:00,52.4,39.3,30.60,ESE,112,8.0,10.0,61,0.00,,,0.00,577,Wunderground v.1.15,2013-04-22 20:32:00,
2013-04-22 16:38:00,52.4,38.5,30.60,ESE,109,6.0,10.0,59,0.00,,,0.00,559,Wunderground v.1.15,2013-04-22 20:38:00,
2013-04-22 16:44:00,52.1,37.8,30.60,East,92,7.0,13.0,58,0.00,,,0.00,547,Wunderground v.1.15,2013-04-22 20:44:00,
2013-04-22 16:50:00,52.4,37.6,30.60,ESE,111,8.0,10.0,57,0.00,,,0.00,522,Wunderground v.1.15,2013-04-22 20:50:00,
2013-04-22 16:56:00,52.5,38.1,30.60,NE,50,7.0,10.0,58,0.00,,,0.00,503,Wunderground v.1.15,2013-04-22 20:56:00,
2013-04-22 17:02:00,52.4,37.2,30.60,ENE,57,7.0,11.0,56,0.00,,,0.00,480,Wunderground v.1.15,2013-04-22 21:02:00,
2013-04-22 17:07:00,52.4,37.2,30.60,ENE,71,7.0,14.0,56,0.00,,,0.00,461,Wunderground v.1.15,2013-04-22 21:07:00,
2013-04-22 17:13:00,52.2,37.0,30.59,ESE,108,7.0,11.0,56,0.00,,,0.00,441,Wunderground v.1.15,2013-04-22 21:13:00,
2013-04-22 17:19:00,52.4,37.2,30.59,East,96,6.0,11.0,56,0.00,,,0.00,424,Wunderground v.1.15,2013-04-22 21:19:00,
2013-04-22 17:25:00,52.4,35.8,30.59,East,96,6.0,12.0,53,0.00,,,0.00,404,Wunderground v.1.15,2013-04-22 21:25:00,
2013-04-22 17:31:00,52.4,36.7,30.60,East,86,6.0,6.0,55,0.00,,,0.00,387,Wunderground v.1.15,2013-04-22 21:31:00,
2013-04-22 17:37:00,52.7,36.0,30.59,SE,134,5.0,9.0,53,0.00,,,0.00,366,Wunderground v.1.15,2013-04-22 21:37:00,
2013-04-22 17:43:00,52.4,34.3,30.59,ESE,105,7.0,7.0,50,0.00,,,0.00,345,Wunderground v.1.15,2013-04-22 21:43:00,
2013-04-22 17:49:00,52.0,33.4,30.60,ESE,111,8.0,12.0,49,0.00,,,0.00,325,Wunderground v.1.15,2013-04-22 21:49:00,
2013-04-22 17:54:00,51.8,32.7,30.59,ENE,78,8.0,8.0,48,0.00,,,0.00,311,Wunderground v.1.15,2013-04-22 21:54:00,
2013-04-22 18:00:00,51.6,31.5,30.60,ESE,115,8.0,12.0,46,0.00,,,0.00,287,Wunderground v.1.15,2013-04-22 22:00:00,
2013-04-22 18:06:00,51.7,32.1,30.59,East,88,7.0,12.0,47,0.00,,,0.00,272,Wunderground v.1.15,2013-04-22 22:06:00,
2013-04-22 18:12:00,51.5,31.4,30.59,East,98,6.0,14.0,46,0.00,,,0.00,251,Wunderground v.1.15,2013-04-22 22:12:00,
2013-04-22 18:18:00,50.9,31.4,30.59,ESE,114,8.0,14.0,47,0.00,,,0.00,229,Wunderground v.1.15,2013-04-22 22:18:00,
2013-04-22 18:24:00,50.7,32.2,30.59,SE,127,8.0,9.0,49,0.00,,,0.00,206,Wunderground v.1.15,2013-04-22 22:24:00,
2013-04-22 18:30:00,50.6,32.6,30.58,ESE,105,7.0,11.0,50,0.00,,,0.00,183,Wunderground v.1.15,2013-04-22 22:30:00,
2013-04-22 18:35:00,50.2,31.8,30.59,East,98,8.0,15.0,49,0.00,,,0.00,162,Wunderground v.1.15,2013-04-22 22:35:00,
2013-04-22 18:41:00,49.7,31.3,30.59,East,79,9.0,12.0,49,0.00,,,0.00,141,Wunderground v.1.15,2013-04-22 22:41:00,
2013-04-22 18:47:00,49.4,31.0,30.58,SSE,149,9.0,17.0,49,0.00,,,0.00,116,Wunderground v.1.15,2013-04-22 22:47:00,
2013-04-22 18:53:00,49.4,31.5,30.58,East,92,7.0,10.0,50,0.00,,,0.00,98,Wunderground v.1.15,2013-04-22 22:53:00,
2013-04-22 18:59:00,49.2,31.8,30.58,ESE,123,7.0,11.0,51,0.00,,,0.00,81,Wunderground v.1.15,2013-04-22 22:59:00,
2013-04-22 19:05:00,49.0,32.1,30.58,ESE,105,6.0,15.0,52,0.00,,,0.00,67,Wunderground v.1.15,2013-04-22 23:05:00,
2013-04-22 19:11:00,48.6,32.7,30.57,ESE,104,7.0,9.0,54,0.00,,,0.00,49,Wunderground v.1.15,2013-04-22 23:11:00,
2013-04-22 19:16:00,48.3,32.4,30.57,ENE,74,7.0,12.0,54,0.00,,,0.00,35,Wunderground v.1.15,2013-04-22 23:16:00,
2013-04-22 19:22:00,47.9,32.9,30.57,ENE,76,7.0,8.0,56,0.00,,,0.00,26,Wunderground v.1.15,2013-04-22 23:22:00,
2013-04-22 19:28:00,47.6,33.1,30.57,ESE,103,6.0,10.0,57,0.00,,,0.00,19,Wunderground v.1.15,2013-04-22 23:28:00,
2013-04-22 19:34:00,47.4,33.4,30.57,ESE,118,5.0,7.0,58,0.00,,,0.00,14,Wunderground v.1.15,2013-04-22 23:34:00,
2013-04-22 19:40:00,47.1,33.1,30.58,SSW,197,5.0,7.0,58,0.00,,,0.00,11,Wunderground v.1.15,2013-04-22 23:40:00,
2013-04-22 19:46:00,47.0,33.4,30.58,ESE,108,6.0,14.0,59,0.00,,,0.00,5,Wunderground v.1.15,2013-04-22 23:46:00,
2013-04-22 19:52:00,46.8,33.2,30.58,East,100,6.0,6.0,59,0.00,,,0.00,0,Wunderground v.1.15,2013-04-22 23:52:00,
2013-04-22 19:57:00,46.5,32.9,30.58,SSE,150,5.0,6.0,59,0.00,,,0.00,0,Wunderground v.1.15,2013-04-22 23:57:00,
2013-04-22 20:03:00,46.3,33.2,30.58,East,98,5.0,8.0,60,0.00,,,0.00,0,Wunderground v.1.15,2013-04-23 00:03:00,
2013-04-22 20:09:00,46.1,33.0,30.58,ESE,115,4.0,10.0,60,0.00,,,0.00,0,Wunderground v.1.15,2013-04-23 00:09:00,
2013-04-22 20:15:00,46.0,32.9,30.58,East,101,5.0,10.0,60,0.00,,,0.00,0,Wunderground v.1.15,2013-04-23 00:15:00,
2013-04-22 20:21:00,45.9,33.2,30.58,East,94,4.0,5.0,61,0.00,,,0.00,0,Wunderground v.1.15,2013-04-23 00:21:00,
2013-04-22 20:27:00,45.7,33.4,30.57,ESE,121,4.0,5.0,62,0.00,,,0.00,0,Wunderground v.1.15,2013-04-23 00:27:00,
2013-04-22 20:32:00,45.6,33.7,30.58,SSE,154,3.0,6.0,63,0.00,,,0.00,0,Wunderground v.1.15,2013-04-23 00:32:00,
2013-04-22 20:38:00,45.5,34.0,30.58,ESE,116,3.0,8.0,64,0.00,,,0.00,0,Wunderground v.1.15,2013-04-23 00:38:00,
2013-04-22 20:44:00,45.4,33.9,30.58,NNE,16,4.0,4.0,64,0.00,,,0.00,0,Wunderground v.1.15,2013-04-23 00:44:00,
2013-04-22 20:50:00,45.3,34.2,30.58,East,84,4.0,6.0,65,0.00,,,0.00,0,Wunderground v.1.15,2013-04-23 00:50:00,
2013-04-22 20:56:00,45.2,34.9,30.58,ENE,60,4.0,6.0,67,0.00,,,0.00,0,Wunderground v.1.15,2013-04-23 00:56:00,
2013-04-22 21:01:00,45.2,35.3,30.58,East,92,4.0,8.0,68,0.00,,,0.00,0,Wunderground v.1.15,2013-04-23 01:01:00,
2013-04-22 21:07:00,45.1,36.3,30.58,ENE,64,5.0,8.0,71,0.00,,,0.00,0,Wunderground v.1.15,2013-04-23 01:07:00,
2013-04-22 21:13:00,44.9,36.4,30.57,ESE,118,5.0,5.0,72,0.00,,,0.00,0,Wunderground v.1.15,2013-04-23 01:13:00,
2013-04-22 21:19:00,44.9,36.8,30.57,East,94,5.0,8.0,73,0.00,,,0.00,0,Wunderground v.1.15,2013-04-23 01:19:00,
2013-04-22 21:25:00,44.7,36.6,30.57,ESE,111,5.0,8.0,73,0.00,,,0.00,0,Wunderground v.1.15,2013-04-23 01:25:00,
2013-04-22 21:31:00,44.6,36.8,30.57,ESE,110,4.0,8.0,74,0.00,,,0.00,0,Wunderground v.1.15,2013-04-23 01:31:00,
2013-04-22 21:37:00,44.6,37.2,30.58,ENE,77,4.0,8.0,75,0.00,,,0.00,0,Wunderground v.1.15,2013-04-23 01:37:00,
2013-04-22 21:43:00,44.7,37.3,30.58,ESE,102,4.0,8.0,75,0.00,,,0.00,0,Wunderground v.1.15,2013-04-23 01:43:00,
2013-04-22 21:49:00,44.9,37.8,30.58,East,82,4.0,8.0,76,0.00,,,0.00,0,Wunderground v.1.15,2013-04-23 01:49:00,
2013-04-22 21:55:00,45.1,38.0,30.58,ENE,72,4.0,10.0,76,0.00,,,0.00,0,Wunderground v.1.15,2013-04-23 01:55:00,
2013-04-22 22:01:00,45.4,38.3,30.58,East,87,5.0,6.0,76,0.00,,,0.00,0,Wunderground v.1.15,2013-04-23 02:01:00,
2013-04-22 22:06:00,45.6,38.5,30.57,SE,131,5.0,6.0,76,0.00,,,0.00,0,Wunderground v.1.15,2013-04-23 02:06:00,
2013-04-22 22:12:00,45.7,38.6,30.57,ESE,110,5.0,7.0,76,0.00,,,0.00,0,Wunderground v.1.15,2013-04-23 02:12:00,
2013-04-22 22:18:00,45.8,38.7,30.57,ESE,103,4.0,7.0,76,0.00,,,0.00,0,Wunderground v.1.15,2013-04-23 02:18:00,
2013-04-22 22:24:00,45.8,38.7,30.57,NE,55,3.0,5.0,76,0.00,,,0.00,0,Wunderground v.1.15,2013-04-23 02:24:00,
2013-04-22 22:30:00,45.8,38.7,30.57,East,95,4.0,7.0,76,0.00,,,0.00,0,Wunderground v.1.15,2013-04-23 02:30:00,
2013-04-22 22:36:00,45.8,38.7,30.57,ESE,104,4.0,9.0,76,0.00,,,0.00,0,Wunderground v.1.15,2013-04-23 02:36:00,
2013-04-22 22:42:00,45.8,39.0,30.57,ESE,119,5.0,5.0,77,0.00,,,0.00,0,Wunderground v.1.15,2013-04-23 02:42:00,
2013-04-22 22:47:00,45.8,39.0,30.56,ESE,103,5.0,9.0,77,0.00,,,0.00,0,Wunderground v.1.15,2013-04-23 02:47:00,
2013-04-22 22:53:00,45.8,39.0,30.56,ENE,68,3.0,4.0,77,0.00,,,0.00,0,Wunderground v.1.15,2013-04-23 02:53:00,
2013-04-22 22:59:00,45.8,39.0,30.56,East,98,3.0,5.0,77,0.00,,,0.00,0,Wunderground v.1.15,2013-04-23 02:59:00,
2013-04-22 23:05:00,45.8,39.3,30.56,East,96,3.0,3.0,78,0.00,,,0.00,0,Wunderground v.1.15,2013-04-23 03:05:00,
2013-04-22 23:11:00,45.8,39.0,30.56,ENE,70,3.0,6.0,77,0.00,,,0.00,0,Wunderground v.1.15,2013-04-23 03:11:00,
2013-04-22 23:17:00,45.8,39.0,30.56,ENE,78,4.0,8.0,77,0.00,,,0.00,0,Wunderground v.1.15,2013-04-23 03:17:00,
2013-04-22 23:23:00,45.8,39.0,30.56,ENE,68,3.0,5.0,77,0.00,,,0.00,0,Wunderground v.1.15,2013-04-23 03:23:00,
2013-04-22 23:28:00,45.8,39.0,30.55,East,101,3.0,5.0,77,0.00,,,0.00,0,Wunderground v.1.15,2013-04-23 03:28:00,
2013-04-22 23:34:00,45.8,39.0,30.55,East,101,3.0,5.0,77,0.00,,,0.00,0,Wunderground v.1.15,2013-04-23 03:34:00,
2013-04-22 23:40:00,45.7,38.9,30.55,East,95,2.0,2.0,77,0.00,,,0.00,0,Wunderground v.1.15,2013-04-23 03:40:00,
2013-04-22 23:46:00,45.7,39.2,30.55,East,90,2.0,9.0,78,0.00,,,0.00,0,Wunderground v.1.15,2013-04-23 03:46:00,
2013-04-22 23:52:00,45.7,39.2,30.55,SE,144,3.0,8.0,78,0.00,,,0.00,0,Wunderground v.1.15,2013-04-23 03:52:00,
2013-04-22 23:58:00,45.7,39.2,30.55,East,91,3.0,8.0,78,0.00,,,0.00,0,Wunderground v.1.15,2013-04-23 03:58:00,